This is the latest recevied weather packets stored in our database for station/object M0UPS-13. If no packets are shown the sender has not sent any weather packets the latest 10 day(s).
| Time | Temp. | Humidity | Pressure | Rain* | Wind** | Luminosity | Snow |
|---|---|---|---|---|---|---|---|
| 1777839602 | 15.56° C | 70% | 1010.4 hPa | 0 mm | - | 0 W/m² | - |
| 1777839302 | 15.56° C | 69% | 1010.5 hPa | 0 mm | - | 0 W/m² | - |
| 1777839003 | 15° C | 70% | 1010.3 hPa | 0 mm | - | 0 W/m² | - |
| 1777838703 | 15.56° C | 70% | 1010.4 hPa | 0 mm | - | 0 W/m² | - |
| 1777838403 | 15.56° C | 69% | 1010.1 hPa | 0 mm | - | 0 W/m² | - |
| 1777838103 | 15.56° C | 69% | 1010 hPa | 0 mm | - | 0 W/m² | - |
| 1777837802 | 15.56° C | 68% | 1010 hPa | 0 mm | - | 0 W/m² | - |
| 1777837502 | 15.56° C | 68% | 1010.1 hPa | 0 mm | - | 0 W/m² | - |
| 1777837202 | 16.11° C | 67% | 1009.8 hPa | 0 mm | - | 1 W/m² | - |
| 1777836903 | 16.11° C | 67% | 1009.9 hPa | 0 mm | - | 1 W/m² | - |
| 1777836603 | 16.11° C | 66% | 1009.9 hPa | 0 mm | - | 2 W/m² | - |
| 1777836302 | 16.11° C | 66% | 1009.8 hPa | 0 mm | - | 3 W/m² | - |
| 1777836002 | 16.67° C | 65% | 1010 hPa | 0 mm | - | 5 W/m² | - |
| 1777835702 | 16.67° C | 65% | 1009.8 hPa | 0 mm | - | 7 W/m² | - |
| 1777835403 | 16.67° C | 65% | 1009.8 hPa | 0 mm | - | 10 W/m² | - |
| 1777835102 | 16.67° C | 64% | 1009.6 hPa | 0 mm | - | 14 W/m² | - |
| 1777834802 | 16.67° C | 64% | 1009.6 hPa | 0 mm | - | 17 W/m² | - |
| 1777834503 | 17.22° C | 63% | 1009.6 hPa | 0 mm | - | 19 W/m² | - |
| 1777834202 | 17.22° C | 63% | 1009.7 hPa | 0 mm | - | 23 W/m² | - |
| 1777833902 | 17.22° C | 63% | 1009.4 hPa | 0 mm | - | 27 W/m² | - |
| 1777833602 | 17.22° C | 62% | 1009.5 hPa | 0 mm | - | 27 W/m² | - |
| 1777833303 | 17.22° C | 63% | 1009.5 hPa | 0 mm | - | 27 W/m² | - |
| 1777833004 | 17.78° C | 62% | 1009.4 hPa | 0 mm | - | 28 W/m² | - |
| 1777832703 | 17.78° C | 62% | 1009.4 hPa | 0 mm | - | 31 W/m² | - |
| 1777832402 | 17.78° C | 61% | 1009.2 hPa | 0 mm | - | 34 W/m² | - |
* Rain latest hour (hover to see other rain measurements)
** Current wind speed in m/s (hover to see current wind gust speed)